Vertical_Velocity
-1 2 -0 -1 -2 -2 -1 -1 1 -3 -2 -2 -3 -4 -1 -1 -7 -4 -8 -5 -0 -4 -1 -2 1 -2 -6 6 7 2 -23 -13 -6 7 9 24 1 -1 -0 -5 0 -3 6 1 2
-1 -2 -3 -2 -2 -2 -2 -2 -4 -4 -3 -4 -4 -3 -2 0 -2 1 -0 -3 -6 -7 -3 1 1 -9 -2 1 -6 -6 -0 -10 1 6 4 15 -0 -1 -3 -4 -7 0 4 1 2
0 -2 0 -1 -4 -5 -3 -3 -5 -6 -2 -4 -3 -4 0 -6 -3 -3 -2 3 -2 -2 -6 -3 1 -6 -9 -2 14 4 -50 39 5 3 -2 11 1 -5 -5 -6 -2 2 4 6 1
-3 -3 -3 -4 -4 -5 -5 -3 -5 -6 -3 -4 -3 -1 -4 -7 -5 -6 -5 -3 -5 -5 -2 -4 4 3 -6 -7 14 -19 -14 18 16 5 3 11 0 -2 -7 -1 2 1 -1 5 4
-1 -1 -2 -4 -5 -5 -3 -5 -7 -4 -7 -3 -2 -5 0 -7 -2 -3 -3 -6 -1 -2 1 4 2 1 9 9 2 -23 28 6 10 7 -2 3 -1 7 -6 -2 -1 1 3 3 2
-1 -1 -2 -0 -2 -7 -4 -2 -8 -5 -4 -3 -2 -6 -4 -6 -1 -7 -1 5 -6 -3 7 6 0 5 -2 5 -0 13 7 -2 7 2 5 -14 11 -4 3 -3 -1 1 1 4 2
-1 1 -1 1 1 -5 -4 1 -4 -7 1 -3 -2 -3 -7 -5 1 -2 -3 -4 -4 -4 7 2 0 -2 4 3 5 6 -5 8 -0 3 -1 12 6 -23 6 0 -1 2 1 3 1
-2 -3 -0 2 0 -3 -2 0 -5 -7 -0 -3 -2 -8 1 2 -5 -5 -1 10 2 -3 -8 -3 -1 -1 -1 3 3 2 2 3 19 15 10 15 -3 5 3 1 3 4 -1 3 6
-1 -2 -1 1 2 -1 1 0 -4 -10 1 -9 -6 1 2 -5 -4 -1 -6 -7 -2 -4 -3 -4 -3 0 7 10 -4 5 -3 -11 18 3 6 14 1 11 -2 -1 -2 4 3 2 4
-1 -5 -2 -2 -1 -1 3 -1 2 -16 -4 -0 0 -8 3 -5 -7 5 -12 -9 -10 -2 2 -2 -3 0 -2 -5 1 5 -1 -1 -2 7 4 11 -1 17 -1 0 3 7 2 -5 10
-2 -0 -2 -4 3 -0 5 7 16 18 8 6 -4 -12 -4 7 -30 -4 -3 -3 -5 -12 1 -4 -1 -4 -0 -1 4 3 -6 3 3 11 3 0 2 -7 13 9 7 2 1 2 7
-1 -0 -1 -4 0 -1 -4 -8 -2 -4 -13 -6 -4 -9 -6 -7 4 -8 -2 -6 -6 -0 -1 -2 -2 -1 -3 -1 1 1 -3 -2 48 8 -4 3 7 3 9 -4 7 11 6 4 6
-1 0 -4 1 -6 -5 -9 -2 -5 -4 -2 -1 -5 -5 3 -7 -8 -5 -5 -4 -3 -1 -2 -2 7 -4 -2 -0 -1 -2 2 -1 11 -3 2 21 7 4 3 -8 -0 2 -3 4 3
-2 1 2 -4 3 -1 -3 -1 -2 -4 -5 3 1 -15 -3 6 -6 1 -1 -11 -5 1 1 -0 -3 -1 -0 0 -1 -2 1 10 -8 -0 -0 -8 -1 -5 -10 2 2 3 3 3 7
-1 -3 -4 -5 -1 -4 -4 -3 -2 -4 -11 -10 -8 -5 -19 -21 -13 -5 -5 4 -6 1 -1 -0 -1 -5 10 -0 -2 -2 -3 4 1 5 4 -3 -0 4 -6 -4 1 5 2 7 4
-2 -1 -3 -4 -5 -4 -4 -3 -2 -2 -6 2 -2 2 3 -4 -0 -4 -8 -1 -10 0 -0 -1 -1 4 -6 5 -2 5 2 3 5 1 2 11 -2 -4 2 11 6 2 3 7 6
-3 -3 -2 -1 3 -3 -4 -2 -3 1 -8 -8 -1 -2 3 -7 -2 2 1 1 -1 3 0 -0 -2 3 -2 2 3 -2 -5 -4 -3 -4 3 13 15 -4 -2 -2 -1 3 5 6 6
-0 -1 -3 -1 -2 -2 -1 -5 -3 3 -2 -5 4 -11 -8 12 -5 -3 0 -6 -6 -3 -1 0 -1 -2 -3 8 4 0 3 11 -1 -6 2 45 -6 1 0 0 2 4 2 2 1
-1 -3 -6 -3 -3 -3 -4 -2 3 -4 3 0 -6 -6 -0 -9 -5 -6 -3 -3 -1 0 1 0 -1 -3 -1 -3 5 0 0 -2 -3 6 12 18 1 4 3 -1 1 2 1 2 1
-1 -2 -4 -4 -3 -4 -2 1 -3 -4 -4 -6 -3 3 1 2 -2 -1 3 -1 -3 -1 -1 0 -3 -0 -2 -1 0 -1 -0 -4 -4 -0 -1 -2 -2 -2 -1 1 0 -0 1 2 -1
-1 -2 -2 -3 1 -1 -5 -2 -3 -3 -1 1 -1 -5 -6 -1 -2 -1 -1 1 -5 -1 -1 -1 1 -2 2 2 -0 -1 -2 -2 -4 -2 -0 -2 -3 -1 -0 1 -1 2 -0 -2 -3
1 -5 -1 -1 -5 -0 -1 -4 -0 -1 -1 -1 -3 -5 -6 -4 -3 -1 -2 -1 -3 2 -1 -0 -1 -2 -2 -1 1 1 3 1 -1 3 0 2 -2 -1 -1 -0 -0 -1 1 1 1
-1 -1 -2 -1 -4 -3 -2 -0 -1 -2 -2 -5 -0 -4 -1 -5 -3 -3 -2 1 -2 -1 2 2 -1 -1 -2 1 2 -1 -1 2 0 -1 -3 -3 0 0 1 -2 3 -1 0 -0 -0
-3 -4 0 4 1 -2 -1 -2 -2 -2 -3 -2 -2 -3 -4 -5 -0 -1 -5 -1 -2 -1 2 2 0 1 0 1 3 2 1 -1 -0 -0 -1 1 0 -1 -2 -2 -1 1 -2 -1 -1
-1 0 2 -4 -3 -1 0 -1 -0 -0 -1 -0 -3 -3 0 -2 -1 -1 -6 -2 -1 1 1 2 -0 -1 -1 0 1 -1 -1 -1 -1 -1 -0 2 3 2 -1 -2 -1 1 0 -0 -1
-9 -6 -1 -4 -3 1 -1 -3 -3 -3 1 -2 -4 0 -2 -0 -0 0 -5 -3 -4 -1 2 1 0 -2 0 -0 0 -1 -1 1 0 1 -1 -2 -1 0 1 -0 2 2 1 1 1
-4 -5 -4 -2 -5 -0 -3 -1 -3 2 2 -2 0 -5 -5 -3 -0 -2 -3 -1 -2 -2 -2 -1 -1 -0 -2 -1 1 1 1 -0 0 -1 -0 -1 1 -1 -1 1 1 2 2 2 2
Height
5816 5814 5811 5808 5806 5803 5799 5796 5793 5790 5786 5784 5780 5778 5774 5769 5764 5761 5758 5755 5750 5745 5740 5737 5735 5731 5729 5728 5726 5724 5726 5734 5738 5740 5746 5751 5749 5750 5750 5752 5759 5764 5768 5773 5776
5813 5810 5807 5804 5801 5798 5795 5791 5788 5784 5781 5778 5775 5771 5766 5761 5755 5751 5747 5742 5737 5732 5728 5723 5717 5713 5711 5712 5707 5706 5711 5722 5723 5723 5725 5733 5734 5736 5740 5742 5747 5754 5759 5764 5769
5808 5805 5802 5799 5795 5792 5788 5785 5782 5778 5774 5770 5766 5761 5756 5750 5744 5739 5734 5727 5720 5715 5711 5705 5699 5693 5691 5688 5687 5686 5698 5703 5704 5704 5707 5715 5719 5722 5726 5731 5737 5743 5748 5757 5761
5804 5800 5796 5793 5789 5786 5782 5779 5775 5770 5765 5761 5757 5751 5744 5738 5732 5725 5717 5710 5702 5695 5689 5683 5675 5668 5665 5662 5660 5655 5680 5677 5682 5685 5690 5695 5704 5708 5714 5720 5726 5731 5736 5745 5751
5797 5794 5790 5787 5784 5779 5775 5772 5767 5762 5756 5752 5746 5740 5733 5726 5719 5710 5701 5693 5686 5677 5663 5652 5644 5633 5629 5628 5628 5626 5650 5646 5658 5660 5668 5674 5689 5693 5699 5705 5712 5719 5726 5733 5740
5792 5789 5785 5781 5777 5773 5769 5764 5758 5753 5747 5741 5734 5728 5721 5713 5705 5695 5684 5674 5662 5649 5635 5613 5603 5595 5593 5596 5596 5604 5610 5620 5630 5638 5646 5654 5668 5670 5687 5692 5697 5707 5713 5722 5730
5787 5783 5780 5775 5771 5766 5762 5756 5749 5743 5737 5731 5724 5717 5708 5699 5689 5678 5667 5652 5634 5614 5597 5581 5572 5568 5568 5571 5573 5577 5581 5592 5603 5621 5630 5637 5639 5655 5671 5677 5683 5690 5701 5709 5718
5782 5778 5774 5770 5765 5759 5754 5747 5741 5734 5727 5721 5713 5705 5695 5686 5674 5660 5647 5628 5602 5580 5571 5565 5560 5557 5555 5555 5556 5557 5560 5569 5591 5599 5612 5614 5627 5641 5650 5663 5671 5676 5688 5697 5706
5775 5771 5768 5763 5758 5752 5746 5740 5732 5726 5718 5710 5703 5694 5683 5671 5657 5639 5621 5603 5583 5569 5562 5558 5555 5553 5550 5548 5548 5549 5552 5559 5574 5584 5597 5603 5615 5626 5633 5647 5658 5666 5674 5685 5695
5769 5765 5760 5755 5751 5745 5739 5732 5724 5715 5710 5702 5694 5683 5671 5656 5639 5620 5599 5582 5573 5566 5561 5555 5551 5547 5541 5541 5543 5544 5545 5553 5565 5578 5585 5594 5602 5614 5621 5634 5645 5655 5662 5673 5685
5763 5759 5754 5749 5744 5738 5733 5727 5720 5711 5701 5693 5682 5671 5659 5643 5621 5605 5587 5576 5569 5561 5556 5552 5547 5544 5541 5539 5540 5540 5542 5550 5562 5571 5575 5587 5596 5607 5617 5624 5634 5642 5652 5662 5673
5758 5753 5748 5742 5737 5731 5724 5717 5710 5702 5691 5684 5673 5660 5647 5632 5616 5595 5579 5573 5566 5560 5555 5552 5547 5544 5541 5539 5537 5537 5542 5550 5557 5564 5571 5580 5590 5600 5606 5613 5626 5635 5644 5653 5663
5751 5747 5742 5736 5730 5724 5716 5710 5701 5693 5683 5675 5662 5650 5637 5618 5600 5585 5576 5570 5564 5560 5556 5552 5548 5545 5541 5538 5537 5537 5544 5552 5557 5563 5570 5578 5585 5591 5597 5605 5617 5627 5636 5644 5653
5745 5740 5735 5730 5726 5717 5710 5702 5692 5683 5674 5664 5652 5639 5628 5610 5592 5578 5572 5571 5564 5561 5556 5552 5547 5543 5541 5538 5538 5540 5544 5551 5556 5563 5568 5574 5583 5588 5595 5602 5611 5620 5629 5637 5644
5739 5733 5728 5721 5716 5710 5703 5694 5684 5675 5665 5656 5643 5629 5613 5601 5589 5577 5572 5570 5564 5561 5558 5553 5546 5543 5539 5537 5538 5543 5546 5551 5557 5560 5567 5571 5579 5585 5592 5599 5607 5614 5622 5631 5637
5733 5728 5722 5715 5709 5702 5693 5685 5677 5669 5657 5646 5634 5622 5606 5592 5579 5570 5570 5569 5564 5561 5557 5553 5548 5544 5537 5537 5539 5543 5548 5554 5558 5562 5567 5571 5577 5583 5589 5597 5604 5611 5618 5625 5630
5727 5721 5715 5708 5702 5694 5685 5678 5670 5660 5650 5640 5628 5617 5602 5589 5577 5571 5568 5568 5565 5562 5559 5554 5549 5546 5543 5541 5543 5548 5553 5556 5560 5562 5568 5571 5576 5582 5587 5594 5600 5606 5613 5619 5624
5720 5714 5708 5701 5694 5687 5678 5671 5663 5654 5642 5632 5620 5608 5598 5585 5573 5569 5568 5567 5563 5561 5558 5555 5552 5550 5548 5549 5550 5552 5554 5557 5560 5563 5566 5570 5574 5580 5585 5591 5596 5601 5606 5612 5618
5713 5707 5700 5694 5686 5680 5672 5665 5656 5647 5637 5626 5614 5602 5590 5578 5571 5567 5565 5565 5563 5561 5559 5557 5554 5553 5552 5553 5554 5554 5557 5560 5562 5563 5563 5567 5574 5579 5583 5589 5592 5597 5601 5606 5611
5704 5699 5693 5686 5680 5673 5665 5658 5649 5640 5630 5620 5610 5600 5586 5577 5569 5566 5565 5563 5561 5559 5558 5558 5556 5553 5553 5554 5555 5556 5558 5562 5564 5565 5566 5570 5575 5579 5582 5586 5589 5593 5597 5601 5606
5694 5689 5684 5678 5672 5665 5657 5650 5643 5634 5625 5616 5605 5593 5583 5575 5568 5565 5565 5563 5560 5558 5557 5557 5557 5557 5553 5554 5555 5557 5558 5561 5565 5567 5568 5571 5575 5577 5580 5582 5586 5588 5592 5596 5599
5686 5682 5676 5670 5665 5657 5651 5644 5637 5627 5619 5609 5600 5589 5578 5571 5566 5565 5564 5562 5560 5557 5556 5556 5556 5556 5557 5555 5555 5557 5559 5561 5564 5568 5569 5571 5575 5575 5578 5580 5582 5584 5587 5591 5594
5678 5674 5668 5663 5657 5651 5645 5638 5631 5622 5614 5605 5595 5585 5575 5569 5565 5563 5563 5561 5559 5556 5556 5556 5557 5556 5556 5557 5556 5557 5559 5561 5564 5566 5568 5571 5574 5574 5575 5577 5578 5580 5583 5585 5589
5672 5666 5661 5656 5651 5645 5638 5632 5625 5617 5609 5600 5592 5582 5573 5566 5563 5561 5561 5561 5558 5556 5555 5556 5557 5557 5557 5557 5557 5558 5559 5561 5563 5566 5568 5570 5570 5571 5573 5574 5575 5577 5579 5582 5585
5665 5660 5655 5651 5645 5639 5633 5627 5619 5612 5605 5596 5587 5579 5571 5565 5561 5559 5559 5559 5558 5556 5554 5555 5556 5557 5557 5557 5557 5559 5560 5561 5562 5565 5567 5568 5569 5570 5571 5572 5572 5574 5577 5580 5583
5660 5656 5651 5647 5641 5634 5628 5621 5614 5606 5600 5592 5584 5577 5570 5564 5560 5558 5557 5556 5557 5556 5554 5554 5555 5556 5557 5557 5558 5559 5560 5561 5562 5564 5565 5567 5568 5568 5569 5570 5571 5572 5574 5577 5581
5654 5651 5647 5642 5636 5630 5623 5616 5609 5602 5596 5588 5581 5574 5567 5563 5558 5556 5555 5554 5556 5555 5553 5553 5554 5555 5555 5555 5556 5558 5558 5560 5561 5562 5564 5565 5567 5567 5569 5570 5571 5572 5574 5577 5579